This is the latest recevied weather packets stored in our database for station/object DG4MJS-10. If no packets are shown the sender has not sent any weather packets the latest 10 day(s).
| Time | Temp. | Humidity | Pressure | Rain* | Wind** | Luminosity | Snow |
|---|---|---|---|---|---|---|---|
| 1787777966 | 21.11° C | 71% | 1016 hPa | - | - | - | - |
| 1787777066 | 21.67° C | 71% | 1016 hPa | - | - | - | - |
| 1787776166 | 21.67° C | 71% | 1016 hPa | - | - | - | - |
| 1787775266 | 21.67° C | 71% | 1016.1 hPa | - | - | - | - |
| 1787774365 | 21.67° C | 71% | 1016.2 hPa | - | - | - | - |
| 1787773465 | 21.67° C | 70% | 1016.3 hPa | - | - | - | - |
| 1787772565 | 21.67° C | 71% | 1016 hPa | - | - | - | - |
| 1787771665 | 21.67° C | 70% | 1015.9 hPa | - | - | - | - |
| 1787770765 | 21.67° C | 70% | 1015.9 hPa | - | - | - | - |
| 1787769865 | 21.67° C | 70% | 1015.8 hPa | - | - | - | - |
| 1787768965 | 22.22° C | 69% | 1015.6 hPa | - | - | - | - |
| 1787768065 | 22.22° C | 69% | 1015.5 hPa | - | - | - | - |
| 1787767164 | 22.22° C | 68% | 1015.7 hPa | - | - | - | - |
| 1787766264 | 22.22° C | 68% | 1015.5 hPa | - | - | - | - |
| 1787765364 | 22.22° C | 67% | 1015.5 hPa | - | - | - | - |
| 1787764464 | 22.78° C | 64% | 1015.5 hPa | - | - | - | - |
| 1787763564 | 23.33° C | 60% | 1015.6 hPa | - | - | - | - |
| 1787762663 | 23.89° C | 59% | 1015.5 hPa | - | - | - | - |
| 1787761763 | 23.89° C | 58% | 1015.4 hPa | - | - | - | - |
| 1787760865 | 22.78° C | 64% | 1015.3 hPa | - | - | - | - |
| 1787759965 | 22.78° C | 64% | 1015.4 hPa | - | - | - | - |
| 1787759065 | 22.78° C | 63% | 1015.5 hPa | - | - | - | - |
| 1787758165 | 23.89° C | 56% | 1015.4 hPa | - | - | - | - |
| 1787757265 | 22.78° C | 65% | 1015.7 hPa | - | - | - | - |
| 1787756365 | 22.78° C | 64% | 1016.1 hPa | - | - | - | - |
* Rain since midnight (hover to see other rain measurements)
** Current wind speed in m/s (hover to see current wind gust speed)